Wind_Speed
33 34 33 31 30 30 28 26 25 25 24 23 23 22 21 20 19 17 18 17 18 19 19 19 18 17 17 15 14 13 12 10 9 9 8 7 7 6 6 5 5 5 5
37 37 38 38 36 35 34 33 31 30 28 28 27 26 24 23 22 21 21 21 21 21 21 21 21 20 20 19 18 16 15 13 12 11 10 10 9 8 8 7 6 5 5
40 41 41 41 42 42 41 38 37 35 33 32 31 29 29 28 26 25 25 24 24 24 23 23 23 22 22 22 21 19 18 17 15 14 13 12 13 12 11 10 9 7 6
43 45 45 44 43 44 45 44 42 40 37 36 35 34 33 32 33 32 29 29 28 27 26 25 24 25 25 24 23 22 22 20 19 18 16 16 16 15 14 13 12 10 8
47 48 48 47 46 47 47 46 44 46 43 41 37 37 38 37 36 37 35 33 32 30 30 27 26 26 26 26 25 25 24 23 22 22 20 19 19 19 18 16 16 14 12
50 52 52 51 50 50 49 48 47 45 45 46 43 42 42 41 41 40 40 42 34 35 34 29 29 28 28 29 27 27 26 25 25 25 24 23 22 23 22 19 19 18 17
53 55 56 55 54 53 52 51 50 50 46 45 45 46 46 43 44 44 41 49 44 40 39 35 33 32 33 33 32 30 28 28 28 28 27 26 25 26 26 24 21 21 21
56 57 58 58 57 56 55 53 51 51 51 48 48 46 47 47 47 45 42 44 35 32 39 39 35 34 34 33 34 35 34 32 31 31 31 30 29 29 28 28 25 25 24
55 56 59 58 56 56 56 54 52 52 51 50 50 49 49 48 44 46 38 37 38 34 30 36 36 33 31 34 35 43 40 38 37 37 36 35 33 32 33 30 29 27 27
46 52 54 58 56 54 55 54 51 51 51 51 49 49 50 47 45 43 45 40 29 36 34 36 37 38 37 36 37 37 40 44 42 43 43 40 37 35 35 33 32 30 29
29 31 39 47 56 54 52 51 51 50 49 50 49 49 49 48 47 47 50 45 44 40 39 37 40 39 39 39 39 42 35 38 43 48 48 46 44 42 39 36 35 34 33
24 24 28 35 42 52 55 52 50 49 47 47 48 47 48 49 48 43 43 43 45 44 46 45 46 42 41 43 44 39 37 44 52 48 50 45 50 49 46 41 39 38 36
23 24 26 29 32 35 41 49 51 51 47 45 44 44 45 46 47 48 42 38 38 40 42 44 49 50 50 46 42 37 41 49 50 50 51 50 52 42 48 48 42 39 39
20 19 20 22 24 27 28 31 37 43 43 40 40 40 40 42 43 44 46 47 49 47 46 47 46 45 45 43 46 47 47 44 46 47 46 47 50 46 48 44 41 38 45
16 16 17 17 18 19 20 21 21 24 28 30 32 33 35 37 38 39 40 41 45 49 51 49 51 52 51 47 47 47 47 48 45 47 48 45 43 47 45 45 49 47 48
15 15 16 16 14 12 11 12 15 18 22 23 25 27 28 30 32 33 33 34 34 39 43 43 47 49 50 49 48 50 50 49 47 47 47 47 47 47 45 46 44 46 52
15 15 14 14 14 11 8 5 6 9 12 15 17 21 24 26 27 29 30 31 34 34 38 41 43 44 44 45 44 45 48 50 50 50 51 49 49 46 44 45 44 46 48
17 15 14 13 13 12 9 5 4 5 8 11 14 16 18 21 22 23 24 27 29 31 35 38 38 39 39 38 39 39 42 45 49 49 50 51 53 51 49 49 49 48 48
18 16 16 15 15 13 11 8 6 5 8 10 13 16 17 19 20 22 24 26 28 31 33 37 39 39 41 40 40 40 41 43 43 43 45 46 48 49 52 50 52 52 52
21 18 15 13 12 11 11 10 9 8 8 9 11 13 15 17 19 21 23 25 28 31 34 36 38 38 39 40 41 41 41 39 43 43 38 42 45 47 44 50 51 53 53
20 20 20 19 17 14 12 11 11 11 12 13 14 15 17 18 19 22 24 25 28 32 34 36 37 36 35 36 38 38 38 38 39 42 41 43 41 45 54 51 50 49 51
21 21 20 20 20 18 17 16 14 13 13 14 16 17 18 19 21 23 25 26 26 26 26 29 29 31 33 35 36 37 38 35 36 36 39 35 35 44 49 53 56 57 45
20 19 19 19 18 16 15 15 14 13 13 14 15 16 18 19 20 23 24 25 25 25 25 26 28 29 30 29 32 36 28 30 29 32 34 38 38 35 39 35 38 38 35
19 19 19 18 18 17 16 15 14 14 13 13 13 15 15 17 19 22 25 25 26 27 28 29 30 32 33 34 33 31 28 32 31 33 31 39 42 42 39 42 37 38 42
20 19 19 19 18 17 16 15 15 15 14 14 15 15 16 16 19 20 19 19 21 23 26 29 29 29 29 31 31 33 34 35 34 30 31 34 33 39 38 39 37 36 39
21 20 19 19 18 18 18 18 18 18 18 18 18 19 19 19 19 20 21 23 24 25 25 25 25 26 28 28 29 30 28 30 33 32 30 32 31 35 36 31 29 33 32
Wind_Direction
264 263 264 264 262 260 258 257 258 262 263 261 257 255 256 260 263 265 267 267 264 262 259 260 259 260 262 265 269 273 277 283 290 300 298 305 309 320 334 345 341 355 6
268 266 263 262 261 260 260 260 257 253 255 258 261 260 257 258 260 263 264 266 266 264 262 261 261 260 262 263 266 270 273 276 281 284 290 286 293 300 306 310 315 329 343
268 267 266 265 263 261 259 258 257 256 255 254 256 260 260 259 257 257 260 260 261 263 265 264 264 263 263 264 266 266 269 272 275 279 280 279 274 281 283 294 299 308 322
266 265 265 265 264 263 262 259 257 256 253 254 255 257 258 259 259 261 259 255 257 258 260 263 265 265 264 265 266 268 267 267 269 272 274 276 276 272 277 281 287 292 298
267 266 263 261 260 260 261 261 259 255 255 254 255 258 259 258 258 259 262 258 251 253 257 257 262 264 266 266 266 267 268 270 269 268 271 272 275 278 279 283 283 286 286
267 266 265 262 259 257 256 258 259 257 254 256 258 257 256 257 259 260 259 258 256 247 249 251 255 257 263 265 264 265 266 266 268 267 266 268 272 275 277 279 284 287 287
266 264 263 262 260 259 257 255 255 256 254 253 256 257 257 257 257 259 264 270 277 257 262 244 243 250 255 262 262 261 263 265 265 266 266 265 265 266 270 273 275 279 282
268 264 263 261 259 258 256 254 254 255 256 254 254 256 260 259 258 260 264 275 275 269 279 264 255 251 252 256 264 263 260 258 259 261 263 263 262 264 265 267 269 271 276
269 265 260 259 259 257 256 253 252 252 253 254 254 254 258 261 269 266 271 264 267 270 270 261 275 277 270 255 263 267 265 262 260 258 256 259 259 261 264 264 265 267 270
273 264 259 255 255 255 256 256 253 252 253 253 252 253 255 258 261 267 268 267 266 267 267 266 264 266 267 264 263 261 268 259 262 266 266 262 259 258 261 265 266 266 267
296 279 264 256 251 251 252 255 256 254 252 253 253 252 253 254 256 257 263 266 265 264 269 269 266 265 263 262 264 268 272 275 268 267 265 269 266 265 263 264 265 265 265
308 296 279 268 261 256 253 251 253 255 255 255 255 254 254 255 256 260 261 266 266 264 263 265 267 270 269 268 269 269 267 272 278 277 278 278 270 261 263 264 264 264 264
302 298 292 283 276 268 260 253 251 252 253 255 256 258 258 258 259 259 258 261 264 263 265 265 264 266 266 268 273 269 272 269 269 270 275 280 274 276 269 264 263 264 269
325 318 304 292 285 279 269 260 254 252 252 255 257 258 259 259 259 260 261 262 262 263 265 268 271 271 270 270 267 268 272 271 270 268 268 269 265 268 268 267 267 271 271
335 337 332 319 304 291 283 262 250 248 249 250 255 258 259 259 260 262 262 263 264 267 266 269 273 274 274 272 273 273 271 267 268 269 269 269 269 268 270 266 273 270 272
335 339 343 342 331 315 292 274 254 239 236 240 244 247 248 253 257 257 258 260 263 266 270 269 268 270 273 272 269 269 270 267 265 264 265 266 266 266 263 268 272 268 267
330 330 333 343 348 343 330 293 246 240 239 236 237 241 246 249 251 256 258 259 263 265 269 271 271 272 272 276 275 272 268 267 266 261 258 260 264 263 263 266 272 268 267
345 339 334 337 344 353 350 329 290 246 235 236 241 245 249 254 259 262 263 265 267 267 269 275 278 280 283 284 284 280 278 274 270 268 263 259 259 260 261 261 259 261 264
11 2 354 348 347 346 347 345 326 285 259 252 251 251 253 258 261 264 267 270 272 273 275 277 280 282 285 285 283 280 276 274 275 274 269 266 262 261 258 258 256 256 259
20 18 10 360 349 342 338 333 323 308 292 282 278 275 272 272 274 276 279 280 281 281 282 282 283 285 285 287 286 286 281 274 270 269 272 265 261 258 259 257 258 259 259
11 11 11 12 8 357 342 329 321 314 308 302 296 291 288 285 284 285 285 285 286 286 284 283 284 284 286 287 289 290 287 280 273 270 271 272 262 258 261 263 262 259 260
2 3 4 3 3 4 7 4 351 336 323 313 307 302 297 296 293 292 296 298 298 295 291 291 292 293 294 293 292 290 288 281 273 272 268 272 274 265 263 258 258 265 255
351 352 353 354 355 356 356 355 352 350 344 335 328 321 308 300 297 296 294 294 296 296 293 291 292 292 294 297 294 299 288 284 283 279 280 266 271 281 294 274 258 250 252
339 341 341 342 344 344 344 344 343 339 333 325 322 321 318 311 310 313 310 295 296 298 297 294 294 294 294 295 299 299 295 286 283 289 286 287 289 289 289 286 274 275 267
330 333 333 334 334 332 332 330 328 324 319 317 317 316 313 309 307 310 312 306 299 300 304 294 291 296 295 295 295 296 294 295 288 282 284 289 285 283 273 268 273 269 258
320 321 322 322 321 321 320 319 317 316 317 317 315 315 313 312 310 307 306 306 304 304 305 304 304 301 302 301 298 297 299 296 297 299 297 295 295 288 279 280 285 278 273
Height
3158 3158 3158 3158 3159 3159 3159 3158 3158 3158 3159 3158 3157 3156 3156 3156 3155 3154 3153 3153 3153 3152 3151 3152 3151 3151 3150 3150 3150 3150 3149 3148 3148 3147 3146 3145 3144 3143 3142 3141 3139 3138 3136
3151 3151 3151 3150 3151 3152 3153 3153 3153 3152 3152 3152 3153 3153 3152 3152 3152 3151 3150 3149 3149 3149 3148 3148 3148 3148 3147 3147 3147 3147 3146 3146 3145 3145 3144 3143 3142 3141 3140 3139 3138 3137 3136
3144 3143 3142 3143 3143 3144 3144 3144 3145 3145 3146 3146 3146 3147 3147 3147 3146 3146 3145 3145 3145 3145 3145 3145 3145 3144 3144 3144 3144 3143 3143 3143 3142 3142 3141 3140 3140 3139 3138 3137 3136 3136 3135
3133 3133 3133 3134 3134 3133 3133 3135 3136 3137 3138 3139 3140 3140 3140 3140 3141 3140 3139 3139 3139 3139 3139 3140 3140 3140 3140 3140 3139 3139 3139 3139 3138 3138 3138 3138 3137 3136 3136 3135 3134 3133 3132
3122 3121 3121 3122 3123 3123 3124 3124 3126 3127 3129 3130 3132 3133 3133 3132 3133 3133 3134 3134 3133 3133 3133 3133 3134 3135 3135 3135 3135 3135 3135 3134 3134 3133 3133 3133 3133 3133 3133 3133 3132 3131 3130
3111 3109 3108 3109 3110 3110 3112 3113 3114 3116 3118 3121 3122 3123 3124 3125 3125 3125 3126 3125 3124 3124 3126 3127 3127 3127 3129 3129 3129 3129 3129 3129 3128 3128 3128 3128 3128 3129 3129 3129 3129 3128 3127
3097 3096 3094 3095 3097 3098 3100 3102 3103 3105 3108 3111 3111 3113 3114 3115 3116 3117 3118 3118 3107 3117 3117 3118 3119 3119 3121 3123 3123 3123 3122 3123 3123 3122 3122 3122 3122 3122 3123 3123 3123 3123 3123
3083 3082 3081 3081 3082 3083 3085 3088 3092 3094 3096 3100 3102 3104 3103 3104 3104 3109 3111 3110 3111 3112 3110 3109 3106 3111 3112 3114 3117 3118 3116 3114 3114 3115 3115 3115 3116 3115 3115 3116 3116 3116 3117
3067 3066 3066 3066 3068 3069 3070 3074 3077 3081 3084 3088 3091 3094 3094 3093 3097 3098 3101 3102 3103 3104 3105 3104 3104 3107 3107 3107 3109 3111 3111 3109 3107 3106 3105 3106 3107 3109 3108 3108 3109 3110 3110
3051 3049 3050 3051 3053 3056 3058 3062 3066 3070 3072 3075 3080 3082 3084 3087 3088 3089 3089 3092 3094 3095 3097 3098 3099 3099 3100 3101 3101 3101 3100 3101 3100 3100 3101 3100 3100 3100 3100 3102 3102 3102 3102
3041 3038 3037 3037 3038 3042 3046 3049 3053 3057 3061 3063 3067 3071 3074 3077 3079 3080 3079 3083 3085 3088 3089 3089 3090 3090 3091 3092 3093 3093 3092 3093 3092 3092 3092 3093 3093 3093 3093 3093 3094 3094 3094
3036 3033 3030 3028 3028 3030 3033 3036 3041 3045 3050 3054 3057 3060 3063 3066 3068 3070 3071 3073 3075 3079 3080 3080 3080 3081 3083 3084 3084 3084 3082 3083 3083 3083 3083 3082 3083 3082 3084 3084 3084 3084 3084
3032 3029 3025 3022 3020 3019 3021 3025 3028 3033 3038 3044 3048 3052 3055 3057 3059 3061 3063 3064 3065 3067 3068 3070 3071 3071 3072 3074 3074 3074 3072 3071 3072 3071 3070 3070 3072 3071 3072 3073 3073 3074 3075
3028 3025 3021 3017 3014 3013 3012 3014 3018 3023 3029 3035 3039 3042 3045 3047 3049 3050 3053 3055 3055 3057 3058 3059 3060 3061 3062 3063 3063 3063 3061 3061 3061 3061 3060 3059 3061 3061 3062 3062 3062 3062 3063
3026 3022 3018 3014 3011 3008 3008 3008 3010 3015 3020 3026 3029 3033 3036 3038 3040 3041 3043 3044 3044 3043 3045 3050 3049 3049 3050 3052 3051 3050 3049 3050 3050 3049 3048 3049 3050 3050 3052 3051 3052 3052 3053
3024 3021 3017 3013 3010 3007 3006 3006 3008 3010 3012 3017 3020 3024 3026 3029 3031 3032 3034 3034 3035 3034 3032 3037 3038 3036 3035 3036 3037 3036 3036 3035 3036 3037 3036 3036 3037 3038 3038 3039 3040 3040 3040
3023 3020 3017 3014 3010 3007 3005 3005 3005 3008 3010 3013 3015 3018 3020 3021 3022 3024 3025 3026 3026 3026 3024 3024 3024 3024 3024 3023 3024 3023 3022 3021 3021 3023 3023 3023 3023 3024 3025 3026 3027 3028 3028
3023 3020 3017 3015 3012 3010 3007 3006 3005 3006 3008 3010 3012 3014 3015 3016 3017 3017 3018 3018 3018 3019 3018 3015 3015 3014 3014 3015 3013 3013 3012 3009 3008 3008 3008 3010 3010 3011 3012 3013 3014 3014 3015
3024 3021 3018 3015 3013 3011 3009 3008 3007 3007 3007 3008 3009 3010 3010 3011 3011 3011 3011 3011 3010 3009 3008 3006 3005 3004 3002 3002 3001 3000 2999 2999 2997 2996 2996 2996 2997 2997 2998 2998 2999 3000 3001
3026 3023 3019 3016 3014 3011 3010 3009 3008 3007 3007 3007 3007 3007 3007 3007 3006 3006 3005 3004 3003 3001 3000 2998 2995 2995 2993 2992 2989 2988 2987 2987 2985 2984 2984 2983 2982 2982 2983 2984 2985 2986 2987
3028 3025 3021 3017 3014 3011 3009 3008 3007 3006 3005 3005 3004 3003 3002 3002 3001 3000 2999 2998 2997 2995 2993 2990 2988 2986 2985 2982 2980 2978 2975 2975 2975 2972 2972 2971 2970 2969 2969 2969 2970 2971 2969
3029 3025 3022 3018 3015 3012 3009 3007 3004 3003 3002 3001 3000 2999 2998 2997 2996 2995 2994 2992 2991 2988 2986 2983 2981 2980 2978 2975 2972 2969 2966 2965 2964 2964 2963 2961 2958 2957 2954 2954 2956 2956 2956
3028 3024 3020 3017 3014 3011 3008 3005 3003 3001 2999 2998 2997 2995 2993 2991 2990 2987 2986 2984 2982 2981 2979 2977 2975 2973 2971 2967 2965 2962 2958 2956 2956 2955 2950 2953 2950 2947 2942 2945 2944 2945 2943
3027 3024 3020 3017 3014 3010 3007 3004 3002 3000 2998 2995 2993 2991 2989 2988 2986 2984 2980 2978 2977 2976 2973 2971 2969 2967 2964 2962 2959 2956 2953 2950 2950 2948 2945 2945 2942 2939 2935 2933 2931 2932 2932
3024 3021 3018 3015 3012 3008 3005 3002 3000 2997 2994 2992 2990 2988 2986 2984 2982 2979 2976 2974 2972 2969 2967 2964 2962 2959 2956 2954 2951 2949 2946 2942 2940 2939 2937 2935 2934 2932 2928 2926 2924 2922 2923
3021 3018 3015 3012 3008 3005 3002 2999 2996 2993 2991 2989 2987 2985 2982 2980 2977 2974 2971 2969 2966 2963 2961 2958 2955 2953 2951 2948 2946 2942 2939 2937 2934 2931 2930 2927 2925 2922 2920 2918 2917 2915 2914